User: anonymous   Login
Location: Unspecified
(0.0000°N, 0.0000°E)
Time: 16:38:07
(UTC+02:00)
Language:

GPS 2-05 Rocket1 - Orbit

View from above orbital plane
View from above orbital plane
View from above satellite
View from above satellite

Ground track
Ground track

The orbit data is extracted from the following two-line orbital elements,

1 20362U 89097B   15241.16910245  .00016416  00000-0  40048-3 0  9994
2 20362 035.6114 162.7325 0081607 056.5588 082.7545 15.36584886397970
Epoch (UTC): 29 August 2015 04:03:30
Eccentricity: 0.0081607
inclination: 35.6114°
perigee height: 400 km
apogee height: 512 km
right ascension of ascending node: 162.7325°
argument of perigee: 56.5588°
revolutions per day: 15.36584886
mean anomaly at epoch: 82.7545°
orbit number at epoch: 39797

The dashed part of the orbit path shows where the satellite is in the earth's shadow,  

DLR